Location: Ottobeuren
(47.9410°N, 10.3007°E)
Time: 03:15:57
(UTC+01:00)

ISS - Visible Passes

Search period start: 05 March 2024 00:00
Search period end: 15 March 2024 00:00
Orbit: 414 x 422 km, 51.6° (Epoch: 04 March)

Date Brightness Start Highest point End Pass type
(mag) Time Alt. Az. Time Alt. Az. Time Alt. Az.
05 Mar -0.5 03:50:50 13° E 03:50:50 13° E 03:51:14 10° E visible
05 Mar -3.5 05:23:46 36° W 05:24:44 50° SSW 05:28:01 10° SE visible
06 Mar -2.6 04:37:55 37° SE 04:37:55 37° SE 04:40:06 10° ESE visible
06 Mar -1.8 06:11:02 10° W 06:13:03 15° SW 06:15:04 10° S visible
07 Mar -2.4 05:25:08 23° SW 05:25:10 23° SW 05:27:53 10° SSE visible
08 Mar -1.4 04:39:31 15° SSE 04:39:31 15° SSE 04:40:17 10° SSE visible
13 Mar -1.3 20:30:55 10° SW 20:31:38 15° SSW 20:31:38 15° SSW visible
14 Mar -2.7 19:43:02 10° SSW 19:45:54 26° SE 19:46:05 26° SE visible
